| time (UTC) | temp C | wind direction | speed KPH | gust KPH | rain 1hr cm | rain 24hr cm | rain mn cm | humidity % | barometer mb |
| 20260507204555 | 8 | 222 | 11.3 | 20.9 | 0.00 | 0.00 | 0.00 | 49 | 1011.8 |
| 20260507203059 | 9 | 283 | 9.7 | 25.7 | 0.00 | 0.00 | 0.00 | 48 | 1011.7 |
| 20260507201552 | 9 | 271 | 8.0 | 22.5 | 0.00 | 0.00 | 0.00 | 50 | 1011.9 |
| 20260507200051 | 8 | 229 | 8.0 | 20.9 | 0.00 | 0.00 | 0.00 | 52 | 1012.0 |
| 20260507194552 | 8 | 270 | 9.7 | 24.1 | 0.00 | 0.00 | 0.00 | 50 | 1012.2 |
| 20260507193049 | 8 | 286 | 11.3 | 27.4 | 0.00 | 0.00 | 0.00 | 50 | 1012.2 |
| 20260507191551 | 9 | 234 | 8.0 | 24.1 | 0.00 | 0.00 | 0.00 | 52 | 1012.1 |
| 20260507190046 | 8 | 266 | 6.4 | 17.7 | 0.00 | 0.00 | 0.00 | 53 | 1012.3 |
| 20260507184544 | 7 | 336 | 9.7 | 20.9 | 0.00 | 0.00 | 0.00 | 56 | 1012.4 |
| 20260507183048 | 7 | 243 | 8.0 | 20.9 | 0.00 | 0.00 | 0.00 | 56 | 1012.5 |
| 20260507181543 | 7 | 246 | 8.0 | 19.3 | 0.00 | 0.00 | 0.00 | 61 | 1012.6 |
| 20260507180051 | 7 | 331 | 4.8 | 27.4 | 0.00 | 0.00 | 0.00 | 61 | 1012.7 |
| 20260507174540 | 7 | 258 | 9.7 | 19.3 | 0.00 | 0.00 | 0.00 | 60 | 1012.8 |
| 20260507173042 | 7 | 226 | 0.0 | 14.5 | 0.00 | 0.00 | 0.00 | 59 | 1012.9 |
| 20260507171544 | 7 | 273 | 9.7 | 20.9 | 0.00 | 0.00 | 0.00 | 57 | 1013.1 |
| 20260507170037 | 7 | 301 | 6.4 | 19.3 | 0.00 | 0.00 | 0.00 | 59 | 1013.2 |
| 20260507164544 | 7 | 205 | 4.8 | 17.7 | 0.00 | 0.00 | 0.00 | 56 | 1013.3 |
| 20260507163044 | 7 | 217 | 8.0 | 30.6 | 0.00 | 0.00 | 0.00 | 55 | 1013.4 |
| 20260507161540 | 8 | 304 | 6.4 | 16.1 | 0.00 | 0.00 | 0.00 | 56 | 1013.6 |
| 20260507160044 | 8 | 168 | 4.8 | 17.7 | 0.00 | 0.00 | 0.00 | 56 | 1013.6 |
| 20260507154532 | 7 | 193 | 8.0 | 25.7 | 0.00 | 0.00 | 0.00 | 58 | 1013.6 |
| 20260507153032 | 7 | 298 | 4.8 | 16.1 | 0.00 | 0.00 | 0.00 | 58 | 1013.7 |
| 20260507151531 | 7 | 175 | 6.4 | 17.7 | 0.00 | 0.00 | 0.00 | 59 | 1013.7 |
| 20260507150031 | 7 | 288 | 9.7 | 20.9 | 0.00 | 0.00 | 0.00 | 57 | 1013.7 |
| 20260507144534 | 7 | 192 | 8.0 | 17.7 | 0.00 | 0.00 | 0.00 | 57 | 1013.9 |
| 20260507143025 | 7 | 153 | 1.6 | 14.5 | 0.00 | 0.00 | 0.00 | 60 | 1013.7 |
| 20260507141524 | 7 | 268 | 9.7 | 22.5 | 0.00 | 0.00 | 0.00 | 61 | 1013.8 |
| 20260507140022 | 6 | 223 | 1.6 | 16.1 | 0.00 | 0.00 | 0.00 | 66 | 1013.9 |
| 20260507134519 | 6 | 209 | 8.0 | 16.1 | 0.00 | 0.00 | 0.00 | 67 | 1014.0 |
| 20260507133017 | 6 | 252 | 8.0 | 17.7 | 0.00 | 0.00 | 0.00 | 66 | 1013.9 |
| 20260507131517 | 6 | 182 | 4.8 | 14.5 | 0.00 | 0.00 | 0.00 | 67 | 1013.9 |
| 20260507130024 | 6 | 292 | 1.6 | 14.5 | 0.00 | 0.00 | 0.00 | 69 | 1013.9 |
| 20260507124518 | 6 | 205 | 3.2 | 12.9 | 0.00 | 0.00 | 0.00 | 70 | 1013.7 |
| 20260507123012 | 5 | 179 | 1.6 | 9.7 | 0.00 | 0.00 | 0.00 | 73 | 1013.7 |
| 20260507121507 | 5 | 211 | 3.2 | 9.7 | 0.00 | 0.00 | 0.00 | 73 | 1013.7 |
| 20260507120005 | 4 | 205 | 3.2 | 8.0 | 0.00 | 0.00 | 0.00 | 76 | 1013.6 |
| 20260507114504 | 4 | 5 | 0.0 | 3.2 | 0.00 | 0.00 | 0.00 | 78 | 1013.6 |
| 20260507113100 | 2 | 360 | 0.0 | 3.2 | 0.00 | 0.00 | 0.00 | 84 | 1013.5 |
| 20260507111600 | 0 | 360 | 0.0 | 0.0 | 0.00 | 0.00 | 0.00 | 87 | 1013.4 |
| 20260507110059 | 0 | 360 | 0.0 | 1.6 | 0.00 | 0.00 | 0.00 | 87 | 1013.1 |
| 20260507110000 | 0 | 360 | 0.0 | 1.6 | 0.00 | 0.00 | 0.00 | 89 | 1013.0 |
| 20260507104600 | 0 | 360 | 0.0 | 3.2 | 0.00 | 0.00 | 0.00 | 88 | 1013.0 |
| 20260507103058 | 0 | 360 | 1.6 | 4.8 | 0.00 | 0.00 | 0.00 | 88 | 1013.0 |
| 20260507101558 | 0 | 360 | 1.6 | 4.8 | 0.00 | 0.00 | 0.00 | 88 | 1013.0 |
| 20260507100154 | 0 | 360 | 3.2 | 6.4 | 0.00 | 0.00 | 0.00 | 86 | 1013.0 |
| 20260507094553 | 0 | 360 | 3.2 | 4.8 | 0.00 | 0.00 | 0.00 | 86 | 1013.0 |
| 20260507093053 | 0 | 360 | 3.2 | 6.4 | 0.00 | 0.00 | 0.00 | 85 | 1013.1 |
| 20260507091549 | 0 | 360 | 0.0 | 3.2 | 0.00 | 0.00 | 0.00 | 84 | 1013.1 |
| 20260507090047 | 0 | 360 | 1.6 | 3.2 | 0.00 | 0.00 | 0.00 | 84 | 1013.3 |
| 20260507084544 | 0 | 360 | 0.0 | 3.2 | 0.00 | 0.00 | 0.00 | 83 | 1013.3 |
| 20260507083043 | 1 | 360 | 0.0 | 3.2 | 0.00 | 0.00 | 0.00 | 83 | 1013.3 |
| 20260507081542 | 1 | 360 | 0.0 | 0.0 | 0.00 | 0.00 | 0.00 | 83 | 1013.4 |
| 20260507080039 | 1 | 360 | 0.0 | 1.6 | 0.00 | 0.00 | 0.00 | 83 | 1013.4 |
| 20260507074544 | 1 | 360 | 3.2 | 4.8 | 0.00 | 0.00 | 0.00 | 82 | 1013.4 |
| 20260507073043 | 1 | 360 | 3.2 | 4.8 | 0.00 | 0.00 | 0.00 | 82 | 1013.6 |
| 20260507071535 | 1 | 360 | 0.0 | 1.6 | 0.00 | 0.00 | 0.00 | 82 | 1013.6 |
| 20260507070034 | 2 | 360 | 0.0 | 1.6 | 0.00 | 0.00 | 0.00 | 81 | 1013.7 |
| 20260507064530 | 2 | 360 | 1.6 | 3.2 | 0.00 | 0.00 | 0.00 | 80 | 1014.0 |
| 20260507063039 | 2 | 360 | 0.0 | 3.2 | 0.00 | 0.00 | 0.00 | 81 | 1014.1 |
| 20260507061527 | 2 | 360 | 0.0 | 3.2 | 0.00 | 0.00 | 0.00 | 80 | 1014.2 |
| 20260507060039 | 2 | 360 | 0.0 | 3.2 | 0.00 | 0.00 | 0.00 | 79 | 1014.2 |
| 20260507054521 | 2 | 360 | 1.6 | 4.8 | 0.00 | 0.00 | 0.00 | 80 | 1014.3 |
| 20260507053019 | 2 | 360 | 0.0 | 3.2 | 0.00 | 0.00 | 0.00 | 79 | 1014.4 |
| 20260507051517 | 2 | 360 | 1.6 | 3.2 | 0.00 | 0.00 | 0.00 | 77 | 1014.5 |
| 20260507050015 | 3 | 360 | 1.6 | 3.2 | 0.00 | 0.00 | 0.00 | 76 | 1014.5 |
| 20260507044515 | 3 | 360 | 3.2 | 4.8 | 0.00 | 0.00 | 0.00 | 75 | 1014.4 |
| 20260507043011 | 3 | 360 | 3.2 | 4.8 | 0.00 | 0.00 | 0.00 | 76 | 1014.5 |
| 20260507041509 | 3 | 360 | 0.0 | 3.2 | 0.00 | 0.00 | 0.00 | 76 | 1014.5 |
| 20260507040006 | 3 | 360 | 1.6 | 3.2 | 0.00 | 0.00 | 0.00 | 76 | 1014.5 |
| 20260507034520 | 3 | 360 | 0.0 | 3.2 | 0.00 | 0.00 | 0.00 | 74 | 1014.6 |
| 20260507033006 | 3 | 360 | 0.0 | 3.2 | 0.00 | 0.00 | 0.00 | 73 | 1014.7 |
| 20260507031507 | 3 | 360 | 0.0 | 3.2 | 0.00 | 0.00 | 0.00 | 73 | 1014.8 |
| 20260507030009 | 3 | 360 | 1.6 | 3.2 | 0.00 | 0.00 | 0.00 | 72 | 1014.8 |
| 20260507024504 | 3 | 360 | 0.0 | 3.2 | 0.00 | 0.00 | 0.00 | 72 | 1014.8 |
| 20260507023004 | 4 | 360 | 0.0 | 3.2 | 0.00 | 0.00 | 0.00 | 69 | 1014.8 |
| 20260507021503 | 4 | 360 | 0.0 | 4.8 | 0.00 | 0.00 | 0.00 | 68 | 1014.6 |
| 20260507020006 | 4 | 360 | 0.0 | 1.6 | 0.00 | 0.00 | 0.00 | 68 | 1014.6 |
| 20260507014502 | 4 | 360 | 1.6 | 4.8 | 0.00 | 0.00 | 0.00 | 66 | 1014.5 |
| 20260507013002 | 5 | 360 | 0.0 | 3.2 | 0.00 | 0.00 | 0.00 | 65 | 1014.4 |
| 20260507011504 | 5 | 360 | 0.0 | 4.8 | 0.00 | 0.00 | 0.00 | 64 | 1014.4 |
| 20260507010002 | 5 | 360 | 1.6 | 8.0 | 0.00 | 0.00 | 0.00 | 64 | 1014.3 |
| 20260507004600 | 5 | 288 | 3.2 | 11.3 | 0.00 | 0.00 | 0.00 | 63 | 1014.3 |
| 20260507003100 | 5 | 322 | 1.6 | 9.7 | 0.00 | 0.00 | 0.00 | 63 | 1014.2 |
| 20260507001600 | 5 | 279 | 1.6 | 11.3 | 0.00 | 0.00 | 0.00 | 61 | 1014.0 |
| 20260507000058 | 5 | 273 | 3.2 | 12.9 | 0.00 | 0.00 | 0.00 | 61 | 1014.0 |
| 20260506234558 | 5 | 294 | 3.2 | 12.9 | 0.00 | 0.00 | 0.00 | 61 | 1014.0 |
| 20260506233107 | 5 | 308 | 4.8 | 12.9 | 0.00 | 0.00 | 0.00 | 61 | 1014.0 |
| 20260506231613 | 6 | 234 | 0.0 | 12.9 | 0.00 | 0.00 | 0.00 | 61 | 1013.8 |
| 20260506230103 | 6 | 302 | 3.2 | 11.3 | 0.00 | 0.00 | 0.00 | 61 | 1014.0 |
| 20260506224556 | 6 | 296 | 6.4 | 12.9 | 0.00 | 0.00 | 0.00 | 61 | 1014.2 |
| 20260506223056 | 6 | 281 | 6.4 | 16.1 | 0.00 | 0.00 | 0.00 | 61 | 1014.1 |
| 20260506221601 | 6 | 317 | 9.7 | 20.9 | 0.00 | 0.00 | 0.00 | 60 | 1014.0 |
| 20260506220059 | 6 | 40 | 6.4 | 19.3 | 0.00 | 0.00 | 0.00 | 60 | 1014.0 |
| 20260506214601 | 6 | 282 | 8.0 | 14.5 | 0.00 | 0.00 | 0.00 | 60 | 1013.9 |
| 20260506213054 | 7 | 303 | 8.0 | 16.1 | 0.00 | 0.00 | 0.00 | 59 | 1013.9 |
| 20260506211607 | 7 | 338 | 6.4 | 16.1 | 0.00 | 0.00 | 0.00 | 59 | 1013.8 |